{"data":{"norad_id":54646,"intl_designator":"2022-166E","name":"ONEWEB-0542","alt_names":[],"object_type":"PAYLOAD","status":"ACTIVE","operator":null,"country":"UK","launch_date":"2022-12-08","launch_site_code":"AFETR","launch_vehicle":null,"mission":null,"orbit_class":"UNKNOWN","rcs_meters":null,"size_class":null,"mass_kg":null,"dimensions":null,"purposes":["comms"],"wikipedia_slug":null,"has_3d_model":false,"image_url":null,"decayed_at":null,"tle_current":{"epoch":"2026-05-24T23:40:44.801760Z","epoch_age_seconds":79755,"freshness":"FRESH","line1":"1 54646U 22166E   26144.98662965  .00000047  00000+0  81697-4 0  9995","line2":"2 54646  87.9260 248.5843 0002225  95.2971 264.8417 13.21825436168470","mean_motion":13.21825436,"eccentricity":0.0002225,"inclination_deg":87.926,"raan_deg":248.5843,"arg_perigee_deg":95.2971,"mean_anomaly_deg":264.8417,"bstar":8.1697e-5,"rev_number":16847,"period_min":108.94025495209,"perigee_km":1176.0743315942,"apogee_km":1179.4367037645,"semimajor_km":7555.8925176793,"source":"CELESTRAK","updated_at":"2026-05-25T13:38:22.626391Z"}}}